Location: Eymir
(36.7333°N, 29.7833°E)
Time: 18:37:19
(UTC+00:00)

Cosmos 1484 Rocket - Pass Details

Date: 14 January 2026
Orbit: 439 x 466 km, 97.6° (Epoch: 17 February)

Event Time Altitude Azimuth Distance (km) Brightness Sun altitude
Rises 04:15:10 0° 3° (N) 2,449 6.0 -11.5°
Reaches altitude 10° 04:17:16 10° 355° (N) 1,579 4.9 -11.1°
Maximum altitude 04:20:25 37° 286° (WNW) 716 2.9 -10.5°
Drops below altitude 10° 04:23:34 10° 217° (SW) 1,584 5.0 -9.9°
Sets 04:25:41 0° 209° (SSW) 2,458 6.0 -9.5°
